DW5164 Weather Reports


Display with metric or nautical units.
time (UTC)temp
F
wind
direction
speed
MPH
gust
MPH
rain 1hr
in
rain 24hr
in
rain mn
in
humidity
%
barometer
mb
20260505050530 58 49 2.0 3.0 0.00 0.00 0.00 85 1011.8
20260505041529 59 84 0.0 2.0 0.00 0.00 0.00 78 1011.9
20260505041030 59 132 0.0 0.0 0.00 0.00 0.00 76 1011.9
20260505040029 60 267 0.0 0.0 0.00 0.00 0.00 74 1011.9
20260505035529 60 267 0.0 1.0 0.00 0.00 0.00 70 1011.9
20260505035029 60 299 0.0 1.0 0.00 0.00 0.00 70 1011.8
20260505034529 60 333 0.0 0.0 0.00 0.00 0.00 70 1011.8
20260505033529 60 336 0.0 1.0 0.00 0.00 0.00 72 1011.9
20260505033030 60 325 0.0 1.0 0.00 0.00 0.00 72 1011.9
20260505032529 60 196 0.0 0.0 0.00 0.00 0.00 71 1012.0
20260505032030 60 196 0.0 0.0 0.00 0.00 0.00 71 1012.1
20260505031029 60 196 0.0 3.0 0.00 0.00 0.00 70 1012.2
20260505030529 60 207 1.0 2.0 0.00 0.00 0.00 70 1012.3
20260505030029 60 216 1.0 2.0 0.00 0.00 0.00 70 1012.3
20260505025531 60 216 1.0 3.0 0.00 0.00 0.00 69 1012.3
20260505024529 60 215 1.0 3.0 0.00 0.00 0.00 70 1012.3
20260505024029 60 211 2.0 3.0 0.00 0.00 0.00 71 1012.3
20260505023530 59 171 0.0 1.0 0.00 0.00 0.00 71 1012.3
20260505022529 59 199 2.0 3.0 0.00 0.00 0.00 72 1012.4
20260505022029 60 105 0.0 0.0 0.00 0.00 0.00 70 1012.3
20260505021529 60 105 1.0 3.0 0.00 0.00 0.00 69 1012.3
20260505021030 60 106 2.0 3.0 0.00 0.00 0.00 68 1012.4
20260505020030 60 60 0.0 0.0 0.00 0.00 0.00 69 1012.1
20260505015529 60 60 0.0 0.0 0.00 0.00 0.00 70 1012.0
20260505015030 60 60 0.0 0.0 0.00 0.00 0.00 70 1012.3
20260505014029 60 60 0.0 0.0 0.00 0.00 0.00 69 1012.4
20260505013530 60 60 0.0 0.0 0.00 0.00 0.00 70 1012.5
20260505013029 60 60 0.0 0.0 0.00 0.00 0.00 70 1012.6
20260505012529 60 60 0.0 0.0 0.00 0.00 0.00 70 1012.8
20260505012030 60 60 0.0 0.0 0.00 0.00 0.00 69 1012.8
20260505011529 60 60 0.0 0.0 0.00 0.00 0.00 69 1012.9
20260505011044 60 60 0.0 0.0 0.00 0.00 0.00 69 1012.9
20260505010529 60 60 0.0 0.0 0.00 0.00 0.00 69 1013.0
20260505010029 60 60 0.0 0.0 0.00 0.00 0.00 69 1013.1
20260505005536 60 60 0.0 0.0 0.00 0.00 0.00 68 1013.2
20260505005030 60 60 0.0 0.0 0.00 0.00 0.00 69 1013.2
20260505004529 60 60 0.0 0.0 0.00 0.00 0.00 68 1013.3
20260505004029 60 60 0.0 0.0 0.00 0.00 0.00 68 1013.3
20260505003529 60 60 0.0 1.0 0.00 0.00 0.00 67 1013.3
20260505002031 61 11 0.0 0.0 0.00 0.00 0.00 65 1013.5
20260505001529 61 11 0.0 0.0 0.00 0.00 0.00 65 1013.5
20260505001044 61 341 1.0 6.0 0.00 0.00 0.00 64 1013.5
20260505000028 61 293 5.0 7.0 0.00 0.00 0.00 64 1013.5
20260504235529 61 283 6.0 9.0 0.00 0.00 0.00 63 1013.5
20260504235028 61 294 6.0 10.0 0.00 0.00 0.00 64 1013.5
20260504233529 61 270 5.0 7.0 0.00 0.00 0.00 65 1013.7
20260504231529 60 272 3.0 7.0 0.00 0.00 0.00 65 1013.9
20260504231029 60 280 5.0 6.0 0.00 0.00 0.00 65 1014.0
20260504230528 60 275 4.0 6.0 0.00 0.00 0.00 64 1014.0
20260504225528 61 292 4.0 5.0 0.00 0.00 0.00 64 1014.1
20260504224529 61 301 3.0 5.0 0.00 0.00 0.00 64 1014.2
20260504224029 61 297 3.0 6.0 0.00 0.00 0.00 63 1014.3
20260504222529 60 280 5.0 7.0 0.00 0.00 0.00 65 1014.4
20260504222028 60 272 3.0 5.0 0.00 0.00 0.00 65 1014.5
20260504221528 60 271 3.0 5.0 0.00 0.00 0.00 65 1014.5
20260504220029 59 255 3.0 5.0 0.00 0.00 0.00 66 1014.5
20260504215528 60 246 4.0 5.0 0.00 0.00 0.00 67 1014.5
20260504214528 61 59 0.0 0.0 0.00 0.00 0.00 67 1014.4
20260504214028 61 59 0.0 1.0 0.00 0.00 0.00 67 1014.4
20260504213529 62 59 0.0 0.0 0.00 0.00 0.00 67 1014.4
20260504213028 62 59 0.0 0.0 0.00 0.00 0.00 67 1014.5
20260504212528 62 59 0.0 0.0 0.00 0.00 0.00 67 1014.5
20260504212029 62 59 0.0 0.0 0.00 0.00 0.00 66 1014.5
20260504211528 62 59 0.0 2.0 0.00 0.00 0.00 66 1014.5
20260504211028 62 98 1.0 2.0 0.00 0.00 0.00 65 1014.6
20260504205531 62 119 5.0 7.0 0.00 0.00 0.00 63 1014.7
20260504205028 63 121 1.0 3.0 0.00 0.00 0.00 61 1014.6
20260504204528 63 298 0.0 0.0 0.00 0.00 0.00 59 1014.5
20260504204028 64 298 0.0 0.0 0.00 0.00 0.00 58 1014.4
20260504203529 64 298 0.0 0.0 0.00 0.00 0.00 57 1014.5
20260504203028 65 298 0.0 1.0 0.00 0.00 0.00 56 1014.4
20260504202531 65 299 0.0 1.0 0.00 0.00 0.00 56 1014.4
20260504201528 65 303 2.0 3.0 0.00 0.00 0.00 55 1014.3
20260504201028 65 295 1.0 3.0 0.00 0.00 0.00 56 1014.4
20260504200528 65 302 2.0 3.0 0.00 0.00 0.00 55 1014.3
20260504200031 66 294 1.0 2.0 0.00 0.00 0.00 54 1014.3
20260504195528 66 311 2.0 3.0 0.00 0.00 0.00 54 1014.2
20260504195028 66 316 2.0 3.0 0.00 0.00 0.00 54 1014.2
20260504194027 67 315 2.0 3.0 0.00 0.00 0.00 53 1014.2
20260504193528 67 296 2.0 3.0 0.00 0.00 0.00 54 1014.2
20260504192530 67 294 1.0 3.0 0.00 0.00 0.00 53 1014.1
20260504191529 68 307 1.0 2.0 0.00 0.00 0.00 52 1014.0
20260504191029 68 313 1.0 3.0 0.00 0.00 0.00 52 1014.0
20260504185536 69 315 1.0 3.0 0.00 0.00 0.00 50 1013.9
20260504183528 70 293 2.0 3.0 0.00 0.00 0.00 49 1013.9
20260504181027 72 310 2.0 3.0 0.00 0.00 0.00 46 1013.8
20260504180042 73 313 2.0 3.0 0.00 0.00 0.00 45 1013.9
20260504175027 74 298 2.0 3.0 0.00 0.00 0.00 44 1013.8
20260504174530 74 307 3.0 5.0 0.00 0.00 0.00 43 1013.8
20260504174035 75 308 2.0 6.0 0.00 0.00 0.00 42 1013.8
20260504173529 75 305 3.0 6.0 0.00 0.00 0.00 42 1013.7
20260504173035 75 311 5.0 6.0 0.00 0.00 0.00 41 1013.8
20260504172527 76 310 4.0 7.0 0.00 0.00 0.00 40 1013.7
20260504172028 76 306 5.0 8.0 0.00 0.00 0.00 39 1013.7
20260504171527 77 295 5.0 8.0 0.00 0.00 0.00 39 1013.7
20260504170527 77 308 5.0 8.0 0.00 0.00 0.00 37 1013.7
20260504150528 78 34 2.0 3.0 0.00 0.00 0.00 37 1014.3
20260504140543 78 181 2.0 6.0 0.00 0.00 0.00 38 1014.6
20260504130527 80 240 5.0 9.0 0.00 0.00 0.00 37 1015.1
20260504110526 77 298 2.0 8.0 0.00 0.00 0.00 37 1016.0
20260504100526 75 249 3.0 7.0 0.00 0.00 0.00 42 1016.6
20260504081526 70 278 3.0 5.0 0.00 0.00 0.00 53 1016.9
20260504081025 70 284 3.0 5.0 0.00 0.00 0.00 53 1016.8
20260504080528 70 318 2.0 3.0 0.00 0.00 0.00 55 1016.8